Regional Weather Roundup
Issued by NWS

Home | Current Version | Previous Version | Text Only | Print | Product List | Glossary Off
Versions: 1 2 3 4 5 6 7 8 9 10 11 12 13 14 15 16 17 18 19 20 21 22 23 24 25 26 27 28 29 30 31 32 33 34 35 36 37 38 39 40 41 42 43 44 45 46 47 48 49 50

382
ASUS43 KDTX 182201
RWRMI
MICHIGAN HOURLY REGIONAL WEATHER ROUNDUP
NATIONAL WEATHER SERVICE DETROIT/PONTIAC MI
500 PM EST SAT NOV 18 2017

NOTE: "FAIR" INDICATES FEW OR NO CLOUDS BELOW 12,000 FEET WITH NO
SIGNIFICANT WEATHER AND/OR OBSTRUCTION TO VISIBILITY.

MIZ047>049-052>055-059>063-066>070-074>076-081>083-182300-
SOUTHEAST LOWER MICHIGAN

CITY           SKY/WX    TMP DP  RH WIND       PRES   REMARKS
ADRIAN         LGT RAIN  44  42  93 N21G29    29.28R FOG
ALMA           LGT SNOW  33  33 100 NW9       29.44R WCI  26
ANN ARBOR      LGT RAIN  44  43  96 NW16G24   29.27R FOG
BAD AXE        LGT SNOW  37  36  96 N14       29.36R WCI  28
CARO           LGT SNOW  36  35  96 N15G21    29.36R WCI  27
DETROIT CITY   LGT RAIN  46  44  93 N13G21    29.26R FOG
DETROIT        LGT RAIN  45  44  97 N16G22    29.26R FOG
FLINT          LGT RAIN  39  36  89 N16       29.36R WCI  30
GROSSE ILE     LGT RAIN  46  45  97 N14       29.23R
HILLSDALE      DRIZZLE   41  37  87 N15       29.30R
HOWELL         RAIN      40  39  98 N9G17     29.32R WCI  34

CITY           SKY/WX    TMP DP  RH WIND       PRES   REMARKS
JACKSON        RAIN      42  38  85 N18G29    29.32R FOG
LAMBERTVILLE   DRIZZLE   47  45  93 N12G20    29.24R
LANSING        LGT RAIN  36  35  96 N14G21    29.39R FOG     WCI  27
LAPEER         LGT RAIN  40  38  96 N15       29.32S WCI  31
MASON          RAIN      40  38  90 N17G23    29.35R WCI  32
MONROE         LGT RAIN  47  45  93 N14       29.23R
MT. CLEMENS    LGT RAIN  44  44 100 N15       29.23F FOG
PONTIAC        LGT RAIN  42  41  96 N17G23    29.27R VSB 1
PORT HOPE        N/A     39  36  89 N9G24     29.35S WCI  33
PORT HURON     LGT RAIN  43  41  93 N9        29.26F
TRI CITIES     LGT SNOW  34  34 100 N12       29.41S VSB 1   WCI  25
MIDLAND        LGT SNOW  33  33  99 NW6       29.42R WCI  28
TROY           RAIN      46  44  93 N14G23    29.28S
SAGINAW HB     LGT SNOW  32  32 100 N9        29.40R WCI  24
$$
MIZ043>046-050>051-056>058-064>065-071>073-077>080-182300-
SOUTHWEST LOWER MICHIGAN

CITY           SKY/WX    TMP DP  RH WIND       PRES   REMARKS
BATTLE CREEK   LGT RAIN  39  37  92 N14G26    29.40R WCI  31
BENTON HARBOR  LGT RAIN  43  39  86 N9G22     29.46R
BIG RAPIDS     CLOUDY    38  35  90 N8G16     29.45R WCI  32
COLDWATER      LGT RAIN  41  41 100 N15G22    29.36R
FREMONT        RAIN      39  39 100 N13       29.48R WCI  31
HOLLAND        LGT RAIN  41  38  89 N8        29.48R
GRAND RAPIDS   LGT RAIN  37  37 100 N14       29.46R WCI  28
IONIA          LGT SNOW  33  33  99 NW9G16    29.43R WCI  26
KALAMAZOO      LGT RAIN  38  34  85 N23G30    29.42R FOG     WCI  27
LUDINGTON      RAIN      40  37  87 N17G23    29.51R WCI  31
MARSHALL       RAIN      38  38  98 N12G21    29.36R WCI  31
MOUNT PLEASANT MIX PCPN  35  34  94 NW7       29.43R WCI  29
MUSKEGON       CLOUDY    42  36  79 N16G22    29.50R
SOUTH HAVEN    LGT RAIN  41  38  92 N10G17    29.47R
$$
MIZ016>042-182300-
NORTHERN LOWER MICHIGAN

CITY           SKY/WX    TMP DP  RH WIND       PRES   REMARKS
ALPENA         CLOUDY    38  36  92 N13G20    29.44F WCI  30
BEAVER ISLAND  CLOUDY    38  33  81 N13       29.54S WCI  31
BELLAIRE       LGT RAIN  37  37  99 N5        29.50S WCI  34
CADILLAC       RAIN      35  34  98 N7        29.45S WCI  29
CHARLEVOIX     CLOUDY    40  35  80 N20G26    29.53R WCI  31
FRANKFORT      LGT RAIN  41  37  83 N10G18    29.53R
GAYLORD        CLOUDY    35  31  85 N7        29.45S WCI  29
GRAYLING       CLOUDY    36  33  88 N6        29.46R WCI  31
HARBOR SPRINGS CLOUDY    37  36  96 N7        29.50S WCI  31
MANISTEE       LGT RAIN  41  36  82 N9G18     29.52R
OSCODA         FLURRIES  33  32  97 N6        29.40R WCI  27
PELLSTON       LGT RAIN  37  35  92 N14       29.50F FOG     WCI  28
ROGERS CITY    CLOUDY    38  33  81 N15G23    29.47S WCI  30
TRAVERSE CITY  CLOUDY    41  35  79 N12G20    29.49R
$$
MIZ007>008-015-182300-
EASTERN UPPER MICHIGAN

CITY           SKY/WX    TMP DP  RH WIND       PRES   REMARKS
KINROSS        CLOUDY    35  32  88 N8        29.51F WCI  29
MACKINAC ISLAN CLOUDY    38  34  86 N7G16     29.50F WCI  32
NEWBERRY       CLOUDY    34  33  96 N8        29.54S WCI  27
S. S. MARIE    CLOUDY    37  31  78 N8        29.51S WCI  31
MUNISING         N/A     38  34  85 N20G30    29.61R WCI  28
$$
MIZ004>006-011>014-085-182300-
CENTRAL UPPER MICHIGAN

CITY           SKY/WX    TMP DP  RH WIND       PRES   REMARKS
MANISTIQUE     CLOUDY    37  27  68 N13       29.56S WCI  28
ESCANABA       MIX PCPN  36  31  82 N12G24    29.62R WCI  28
SAWYER-GWINN   CLOUDY    32  27  80 N17G25    29.63R WCI  21
$$
MIZ001>003-009>011-084-182300-
WESTERN UPPER MICHIGAN

CITY           SKY/WX    TMP DP  RH WIND       PRES   REMARKS
IRON MOUNTAIN  CLOUDY    33  26  75 NW16      29.63R WCI  23
HOUGHTON       CLOUDY    28  21  75 NW14      29.69R WCI  17
COPPER HARBOR    N/A     32  27  81 N23G29    29.69S WCI  19
IRONWOOD       FLURRIES N/A N/A N/A NW12G20   29.76R
$$

ABBREVIATIONS USED IN REMARKS
   TC - TEMPERATURE IN CELSIUS
  WCI - WIND CHILL INDEX
   HX - HEAT INDEX
  VSB - VISIBILITY





USA.gov is the U.S. government's official web portal to all federal, state and local government web resources and services.